Regional Weather Roundup
Issued by NWS

Home | Current Version | Previous Version | Graphics & Text | Print | Product List | Glossary On
Versions: 1 2 3 4 5 6 7 8 9 10 11 12 13 14 15 16 17 18 19 20 21 22 23 24 25 26 27 28 29 30 31 32 33 34 35 36 37 38 39 40 41 42 43 44 45 46 47 48 49 50
000
ASUS43 KDMX 221206
RWRIA

WEATHER ROUNDUP FOR IOWA
NATIONAL WEATHER SERVICE DES MOINES IA
600 AM CST SUN JAN 22 2017

NOTE: "FAIR" INDICATES FEW OR NO CLOUDS BELOW 12,000 FEET WITH NO
SIGNIFICANT WEATHER AND/OR OBSTRUCTIONS TO VISIBILITY.

* - THESE STATIONS ARE NOT NWS STATIONS...THUS NOT UNDER NWS
QUALITY CONTROL.  THEY ALSO DO NOT REPORT WEATHER SUCH
AS PRECIPITATION OR FOG.

IAZ001>003-012>014-020>022-031>034-043>046-221300-
   NORTHWEST IOWA

CITY           SKY/WX    TMP DP  RH WIND       PRES   REMARKS
CARROLL *      CLOUDY    32  32 100 NW9       29.65R FOG     WCI  24
CHEROKEE *     CLOUDY    33  32  98 NW5       29.67R WCI  28
DENISON *      CLOUDY    32  30  93 NW7       29.64R WCI  26
LE MARS *      CLOUDY    34  30  86 NW7G13    29.68R WCI  28
ORANGE CITY *  CLOUDY    32  30  93 NW12      29.65R WCI  23
SHELDON *      CLOUDY    32  32 100 NW12      29.63R WCI  23
SIOUX CITY     CLOUDY    34  30  85 NW8       29.69R WCI  27
6HR MIN TEMP:  28; 6HR MAX TEMP:  34;

SPENCER          N/A    N/A N/A N/A MISG      29.64R
STORM LAKE *   CLOUDY    32  30  93 NW8       29.65R WCI  25
$$

IAZ055>058-069>071-079>083-090>094-221300-
   SOUTHWEST IOWA

CITY           SKY/WX    TMP DP  RH WIND       PRES   REMARKS
ATLANTIC *     CLOUDY    30  30 100 N10       29.65S WCI  21
AUDUBON *      CLOUDY    30  28  93 NW6       29.65R WCI  24
CLARINDA *     CLEAR     30  30 100 NE5       29.67R WCI  25
COUNCIL BLFS * CLOUDY    30  32 100 N13       29.66R WCI  20
CRESTON *      CLOUDY    30  30 100 N12       29.64R FOG     WCI  21
HARLAN  *      CLOUDY    32  32 100 N13G18    29.69R WCI  22
LAMONI         FOG       30  29  96 N6        29.61R VSB 1/2 WCI  24
6HR MIN TEMP:  28; 6HR MAX TEMP:  36;

RED OAK *      CLOUDY    30  30 100 N13G22    29.66R WCI  20
SHENANDOAH *   PTCLDY    32  30  93 N9        29.67R WCI  24
$$

IAZ047>049-059>061-072>074-084-221300-
   CENTRAL IOWA

CITY           SKY/WX    TMP DP  RH WIND       PRES   REMARKS
AMES           CLOUDY    33  32  96 NW7       29.63R WCI  27
6HR MIN TEMP:  32; 6HR MAX TEMP:  34;

ANKENY *       CLOUDY    32  32 100 NW7       29.65R WCI  26
BOONE *        CLOUDY    32  32 100 NW8       29.62R WCI  25
CHARITON *     FOG       30  30 100 NW8       29.62R VSB 1/4 WCI  23
DES MOINES     CLOUDY    32  31  96 N6        29.64R WCI  26
6HR MIN TEMP:  29; 6HR MAX TEMP:  34;

GRINNELL*      FOG       32  32 100 W6        29.62R VSB 1/4 WCI  26
KNOXVILLE *    FOG       32  32 100 NW14      29.61R VSB 1/4 WCI  22
MARSHALLTOWN   CLOUDY    32  31  96 NW6       29.62R WCI  26
6HR MIN TEMP:  31; 6HR MAX TEMP:  34;

NEWTON *       CLOUDY    32  32 100 NW9       29.62R WCI  24
PELLA *        FOG       32  32  99 NW7       29.64R VSB 1/2 WCI  26
PERRY *        CLOUDY    33  32  96 NW5       29.64R WCI  28
$$

IAZ004>006-015-016-023>025-035-036-221300-
   NORTH CENTRAL IOWA

CITY           SKY/WX    TMP DP  RH WIND       PRES   REMARKS
ALGONA *       FOG       34  34 100 NW6       29.63R VSB 1/2 WCI  29
CLARION *      FOG       32  32 100 W9        29.62R VSB 1/4 WCI  24
ESTHERVILLE    FOG       32  32 100 NW9       29.63R VSB 3/4 WCI  24
6HR MIN TEMP:  32; 6HR MAX TEMP:  32;

FORT DODGE *   CLOUDY    34  28  80 W5        29.63R WCI  30
MASON CITY     CLOUDY    32  32 100 NW8       29.62R FOG     WCI  25
6HR MIN TEMP:  32; 6HR MAX TEMP:  32;

FOREST CITY *  CLOUDY    32  32 100 CALM      29.62R FOG
WEBSTER CITY * FOG       34 N/A N/A NW12      29.60R VSB 3/4 WCI  25
IOWA FALLS *   FOG       33  33  99 NW8       29.61R VSB 1   WCI  26
$$

IAZ007>011-017>019-026>030-037>042-050>054-066-221300-
   NORTHEAST IOWA

CITY           SKY/WX    TMP DP  RH WIND       PRES   REMARKS
CEDAR RAPIDS   FOG       32  32 100 NW6       29.60R VSB 1/4 WCI  26
6HR MIN TEMP:  29; 6HR MAX TEMP:  35;

CHARLES CITY * CLOUDY    32  32 100 N6        29.60R WCI  26
CLINTON *      SNOW      31  31 100 N7        29.60R VSB 1/4 WCI  24
DECORAH *      FOG       32  32 100 NW5       29.58S VSB 1/4 WCI  27
DUBUQUE        MOCLDY    27  27 100 CALM      29.59R FOG
6HR MIN TEMP:  27; 6HR MAX TEMP:  35;

MONTICELLO *   FOG       32  32 100 CALM      29.60R VSB 1/4
OELWEIN *      CLOUDY    32  32 100 NW7       29.60R FOG     WCI  26
WATERLOO       CLOUDY    33  29  85 NW5       29.61R WCI  29
6HR MIN TEMP:  30; 6HR MAX TEMP:  34;

$$

IAZ064-065-067-068-078-221300-
   EAST CENTRAL IOWA

CITY           SKY/WX    TMP DP  RH WIND       PRES   REMARKS
DAVENPORT      FOG       30  28  92 W3        29.60R VSB 1/4
6HR MIN TEMP:  30; 6HR MAX TEMP:  40;

IOWA CITY      FOG       31  30  96 CALM      29.62R VSB 3/4
6HR MIN TEMP:  28; 6HR MAX TEMP:  34;

MUSCATINE *    FOG       30  30 100 N5        29.61R VSB 1   WCI  25
QUAD CITIES    FOG       31  29  92 W3        29.59R VSB 1/4
6HR MIN TEMP:  29; 6HR MAX TEMP:  43;

$$

IAZ062-063-075>077-085>089-095>099-221300-
   SOUTHEAST IOWA

CITY           SKY/WX    TMP DP  RH WIND       PRES   REMARKS
BURLINGTON     FOG       35  35 100 CALM      29.58F VSB 1/2
6HR MIN TEMP:  33; 6HR MAX TEMP:  37;

FAIRFIELD *    CLOUDY    32  32 100 N3        29.60R FOG
FORT MADISON * FOG       36  34  93 CALM      29.60R VSB 1/2
KEOKUK *       CLOUDY    37 N/A N/A NE3       29.58S HAZE
OSKALOOSA *    FOG       32  32 100 NW5       29.61R VSB 1/4 WCI  27
CENTERVILLE *  FOG       32  32 100 NW3       29.61R VSB 3/4
OTTUMWA        FOG       31  30  96 NW6       29.60R VSB 1/4 WCI  25
6HR MIN TEMP:  28; 6HR MAX TEMP:  31;

WASHINGTON *   CLOUDY    30  32 100 CALM      29.61R FOG
$$

ABBREVIATIONS USED IN REMARKS
   TC - TEMPERATURES IN CELSIUS
  WCI - WIND CHILL INDEX
   HX - HEAT INDEX
  VSB - VISIBILITY
$$





USA.gov is the U.S. government's official web portal to all federal, state and local government web resources and services.